Satellite-Ground Cal/Val Region Overpasses Predictions

Prediction of Satellite NPP Overpassing Cal/Val Region: PacNW

Region Location: (Latitude: 10.00, Longitude: 139.50) to (Latitude: 22.70, Longitude: 165.60).

Table of predicted overpasses for the next 14.0 days since TLE Epoch: 3/25/2023
Interval Starting Time Starting Location Ending Time Ending Location
1 03/25/2023 15:57:46 ( 22.69, 146.08) 03/25/2023 16:01:22 ( 10.01, 143.05)
2 03/26/2023 03:06:52 ( 10.02, 153.58) 03/26/2023 03:10:28 ( 22.69, 150.55)
3 03/26/2023 15:38:46 ( 22.67, 150.83) 03/26/2023 15:42:21 ( 10.05, 147.82)
4 03/27/2023 02:47:52 ( 10.03, 158.33) 03/27/2023 02:51:27 ( 22.65, 155.32)
5 03/27/2023 15:19:46 ( 22.65, 155.58) 03/27/2023 15:23:21 ( 10.03, 152.57)
6 03/28/2023 02:28:51 ( 10.06, 163.08) 03/28/2023 02:32:26 ( 22.68, 160.07)
7 03/28/2023 15:00:44 ( 22.69, 160.35) 03/28/2023 15:04:20 ( 10.01, 157.32)
8 03/29/2023 02:12:33 ( 19.59, 165.59) 03/29/2023 02:13:26 ( 22.70, 164.82)
9 03/29/2023 03:51:20 ( 10.02, 142.47) 03/29/2023 03:54:52 ( 22.47, 139.51)
10 03/29/2023 14:41:44 ( 22.67, 165.10) 03/29/2023 14:45:19 ( 10.05, 162.09)
11 03/29/2023 16:23:14 ( 22.66, 139.72) 03/29/2023 16:23:29 ( 21.78, 139.50)
12 03/30/2023 03:32:19 ( 10.05, 147.22) 03/30/2023 03:35:54 ( 22.67, 144.21)
13 03/30/2023 16:04:12 ( 22.69, 144.49) 03/30/2023 16:07:48 ( 10.02, 141.46)
14 03/31/2023 03:13:18 ( 10.02, 151.99) 03/31/2023 03:16:54 ( 22.70, 148.96)
15 03/31/2023 15:45:12 ( 22.66, 149.24) 03/31/2023 15:48:47 ( 10.05, 146.23)
16 04/01/2023 02:54:17 ( 10.05, 156.74) 04/01/2023 02:57:52 ( 22.67, 153.73)
17 04/01/2023 15:26:10 ( 22.69, 154.00) 04/01/2023 15:29:46 ( 10.01, 150.98)
18 04/02/2023 02:35:16 ( 10.02, 161.50) 04/02/2023 02:38:51 ( 22.64, 158.49)
19 04/02/2023 15:07:10 ( 22.66, 158.75) 04/02/2023 15:10:45 ( 10.04, 155.74)
20 04/03/2023 02:17:05 ( 12.94, 165.59) 04/03/2023 02:19:51 ( 22.68, 163.24)
21 04/03/2023 03:57:44 ( 10.00, 140.89) 04/03/2023 03:59:25 ( 15.94, 139.51)
22 04/03/2023 14:48:08 ( 22.68, 163.52) 04/03/2023 14:51:44 ( 10.00, 160.49)
23 04/04/2023 03:38:44 ( 10.04, 145.64) 04/04/2023 03:42:19 ( 22.66, 142.63)
24 04/04/2023 14:32:18 ( 11.49, 165.59) 04/04/2023 14:32:43 ( 10.02, 165.25)
25 04/04/2023 16:10:37 ( 22.70, 142.90) 04/04/2023 16:14:13 ( 10.02, 139.88)
26 04/05/2023 03:19:43 ( 10.02, 150.40) 04/05/2023 03:23:18 ( 22.64, 147.39)
27 04/05/2023 15:51:36 ( 22.65, 147.65) 04/05/2023 15:55:11 ( 10.04, 144.64)
28 04/06/2023 03:00:41 ( 10.01, 155.16) 04/06/2023 03:04:17 ( 22.69, 152.14)
29 04/06/2023 15:32:35 ( 22.67, 152.41) 04/06/2023 15:36:10 ( 10.05, 149.40)
30 04/07/2023 02:41:41 ( 10.05, 159.91) 04/07/2023 02:45:16 ( 22.67, 156.90)
31 04/07/2023 15:13:33 ( 22.68, 157.18) 04/07/2023 15:17:09 ( 10.00, 154.15)
